Tracking 29799 objects as of 10-Oct-2024
HD Live streaming from Space Station
objects crossing your sky now

DRAGON FREEDOM-2

Track DRAGON FREEDOM-2 now!
10-day predictions
DRAGON FREEDOM-2 is classified as:


NORAD ID: 61447
Int'l Code: 2024-178A
Perigee: 418.9 km
Apogee: 431.3 km
Inclination: 51.6 °
Period: 92.9 minutes
Semi major axis: 6796 km
RCS: Unknown
Launch date: September 28, 2024
Source: United States (US)
Launch site: AIR FORCE EASTERN TEST RANGE (AFETR)
Your satellite tracking list
Your tracking list is empty




NASA's NSSDC Master Catalog

Two Line Element Set (TLE):
1 61447U 24178A   24284.50025436  .00027382  00000-0  49244-3 0  9997
2 61447  51.6375 104.2380 0009123  55.8336 304.3517 15.49593536  1525
Source of the keplerian elements: AFSPC